Time,TemperatureF,DewpointF,PressureIn,WindDirection,WindDirectionDegrees,WindSpeedMPH,WindSpeedGustMPH,Humidity,HourlyPrecipIn,Conditions,Clouds,dailyrainin,SoftwareType,DateUTC
2013-01-29 00:05:00,37.4,16.4,29.88,SW,229,2.0,2.0,42,0.00,,,0.00,Wunderground v.1.15,2013-01-29 07:05:00,
2013-01-29 00:15:00,37.3,16.3,29.89,SSW,203,3.0,5.0,42,0.00,,,0.00,Wunderground v.1.15,2013-01-29 07:15:00,
2013-01-29 00:20:00,37.1,16.1,29.89,WSW,250,4.0,4.0,42,0.00,,,0.00,Wunderground v.1.15,2013-01-29 07:20:00,
2013-01-29 00:25:00,37.0,16.5,29.89,South,182,4.0,4.0,43,0.00,,,0.00,Wunderground v.1.15,2013-01-29 07:25:00,
2013-01-29 00:30:00,36.9,16.5,29.89,SSW,207,3.0,3.0,43,0.00,,,0.00,Wunderground v.1.15,2013-01-29 07:30:00,
2013-01-29 00:35:00,36.7,16.8,29.89,SW,228,3.0,3.0,44,0.00,,,0.00,Wunderground v.1.15,2013-01-29 07:35:00,
2013-01-29 00:40:00,36.6,16.7,29.89,SW,221,3.0,3.0,44,0.00,,,0.00,Wunderground v.1.15,2013-01-29 07:40:00,
2013-01-29 00:45:00,36.5,16.6,29.89,South,183,4.0,5.0,44,0.00,,,0.00,Wunderground v.1.15,2013-01-29 07:45:00,
2013-01-29 00:50:00,36.4,17.1,29.88,SSW,207,4.0,4.0,45,0.00,,,0.00,Wunderground v.1.15,2013-01-29 07:50:00,
2013-01-29 00:55:00,36.3,17.0,29.88,SSW,202,3.0,5.0,45,0.00,,,0.00,Wunderground v.1.15,2013-01-29 07:55:00,
2013-01-29 01:00:00,36.2,16.9,29.88,WSW,243,3.0,3.0,45,0.00,,,0.00,Wunderground v.1.15,2013-01-29 08:00:00,
2013-01-29 01:05:00,36.1,16.8,29.87,SW,232,4.0,7.0,45,0.00,,,0.00,Wunderground v.1.15,2013-01-29 08:05:00,
2013-01-29 01:10:00,36.0,16.7,29.87,SW,220,5.0,5.0,45,0.00,,,0.00,Wunderground v.1.15,2013-01-29 08:10:00,
2013-01-29 01:15:00,35.9,16.6,29.87,SSW,203,4.0,5.0,45,0.00,,,0.00,Wunderground v.1.15,2013-01-29 08:15:00,
2013-01-29 01:20:00,35.8,16.5,29.87,SSW,208,2.0,2.0,45,0.00,,,0.00,Wunderground v.1.15,2013-01-29 08:20:00,
2013-01-29 01:25:00,35.8,16.5,29.86,SW,232,1.0,2.0,45,0.00,,,0.00,Wunderground v.1.15,2013-01-29 08:25:00,
2013-01-29 01:30:00,35.7,16.4,29.86,South,186,1.0,2.0,45,0.00,,,0.00,Wunderground v.1.15,2013-01-29 08:30:00,
2013-01-29 01:35:00,35.6,16.3,29.85,SSW,196,2.0,2.0,45,0.00,,,0.00,Wunderground v.1.15,2013-01-29 08:35:00,
2013-01-29 01:40:00,35.6,16.3,29.85,SSW,196,1.0,1.0,45,0.00,,,0.00,Wunderground v.1.15,2013-01-29 08:40:00,
2013-01-29 01:45:00,35.5,16.2,29.85,SSW,210,1.0,1.0,45,0.00,,,0.00,Wunderground v.1.15,2013-01-29 08:45:00,
2013-01-29 01:50:00,35.5,16.2,29.85,SW,232,1.0,4.0,45,0.00,,,0.00,Wunderground v.1.15,2013-01-29 08:50:00,
2013-01-29 01:55:00,35.4,16.1,29.85,South,184,2.0,7.0,45,0.00,,,0.00,Wunderground v.1.15,2013-01-29 08:55:00,
2013-01-29 02:00:00,35.3,16.0,29.84,SW,219,3.0,3.0,45,0.00,,,0.00,Wunderground v.1.15,2013-01-29 09:00:00,
2013-01-29 02:05:00,35.2,16.0,29.84,SW,219,3.0,3.0,45,0.00,,,0.00,Wunderground v.1.15,2013-01-29 09:05:00,
2013-01-29 02:10:00,35.1,16.4,29.84,SSW,198,2.0,2.0,46,0.00,,,0.00,Wunderground v.1.15,2013-01-29 09:10:00,
2013-01-29 02:15:00,35.1,16.4,29.84,SSW,196,2.0,3.0,46,0.00,,,0.00,Wunderground v.1.15,2013-01-29 09:15:00,
2013-01-29 02:20:00,35.0,16.3,29.84,SW,221,2.0,2.0,46,0.00,,,0.00,Wunderground v.1.15,2013-01-29 09:20:00,
2013-01-29 02:25:00,34.9,16.2,29.84,SSW,201,2.0,2.0,46,0.00,,,0.00,Wunderground v.1.15,2013-01-29 09:25:00,
2013-01-29 02:30:00,34.8,16.1,29.84,SW,225,2.0,4.0,46,0.00,,,0.00,Wunderground v.1.15,2013-01-29 09:30:00,
2013-01-29 02:35:00,34.7,16.0,29.84,SW,218,3.0,4.0,46,0.00,,,0.00,Wunderground v.1.15,2013-01-29 09:35:00,
2013-01-29 02:40:00,34.7,16.0,29.83,West,261,3.0,3.0,46,0.00,,,0.00,Wunderground v.1.15,2013-01-29 09:40:00,
2013-01-29 02:45:00,34.6,16.4,29.83,SW,221,3.0,5.0,47,0.00,,,0.00,Wunderground v.1.15,2013-01-29 09:45:00,
2013-01-29 02:50:00,34.5,16.3,29.84,SW,234,2.0,2.0,47,0.00,,,0.00,Wunderground v.1.15,2013-01-29 09:50:00,
2013-01-29 02:55:00,34.4,16.2,29.84,WSW,247,1.0,2.0,47,0.00,,,0.00,Wunderground v.1.15,2013-01-29 09:55:00,
2013-01-29 03:00:00,34.4,16.2,29.84,WSW,246,1.0,1.0,47,0.00,,,0.00,Wunderground v.1.15,2013-01-29 10:00:00,
2013-01-29 03:05:00,34.4,16.2,29.83,WSW,245,1.0,1.0,47,0.00,,,0.00,Wunderground v.1.15,2013-01-29 10:05:00,
2013-01-29 03:15:00,34.4,16.2,29.83,WSW,250,1.0,1.0,47,0.00,,,0.00,Wunderground v.1.15,2013-01-29 10:15:00,
2013-01-29 03:20:00,34.2,16.0,29.83,WSW,250,1.0,3.0,47,0.00,,,0.00,Wunderground v.1.15,2013-01-29 10:20:00,
2013-01-29 03:25:00,34.2,16.0,29.83,WSW,252,1.0,4.0,47,0.00,,,0.00,Wunderground v.1.15,2013-01-29 10:25:00,
2013-01-29 03:30:00,34.2,16.0,29.84,SW,226,2.0,7.0,47,0.00,,,0.00,Wunderground v.1.15,2013-01-29 10:30:00,
2013-01-29 03:35:00,34.2,16.0,29.83,SW,223,3.0,7.0,47,0.00,,,0.00,Wunderground v.1.15,2013-01-29 10:35:00,
2013-01-29 03:40:00,34.1,15.9,29.83,WSW,253,2.0,2.0,47,0.00,,,0.00,Wunderground v.1.15,2013-01-29 10:40:00,
2013-01-29 03:45:00,34.0,16.3,29.82,SW,226,2.0,2.0,48,0.00,,,0.00,Wunderground v.1.15,2013-01-29 10:45:00,
2013-01-29 03:50:00,33.9,16.3,29.82,SSW,207,1.0,3.0,48,0.00,,,0.00,Wunderground v.1.15,2013-01-29 10:50:00,
2013-01-29 03:55:00,33.8,16.6,29.82,SW,234,2.0,3.0,49,0.00,,,0.00,Wunderground v.1.15,2013-01-29 10:55:00,
2013-01-29 04:00:00,33.7,16.5,29.82,SW,215,2.0,3.0,49,0.00,,,0.00,Wunderground v.1.15,2013-01-29 11:00:00,
2013-01-29 04:05:00,33.5,16.4,29.82,SW,219,2.0,3.0,49,0.00,,,0.00,Wunderground v.1.15,2013-01-29 11:05:00,
2013-01-29 04:10:00,33.3,16.6,29.81,WSW,252,1.0,1.0,50,0.00,,,0.00,Wunderground v.1.15,2013-01-29 11:10:00,
2013-01-29 04:15:00,33.2,16.5,29.81,South,181,1.0,1.0,50,0.00,,,0.00,Wunderground v.1.15,2013-01-29 11:15:00,
2013-01-29 04:20:00,33.1,16.9,29.81,West,270,1.0,1.0,51,0.00,,,0.00,Wunderground v.1.15,2013-01-29 11:20:00,
2013-01-29 04:25:00,33.0,17.3,29.81,WNW,296,1.0,1.0,52,0.00,,,0.00,Wunderground v.1.15,2013-01-29 11:25:00,
2013-01-29 04:30:00,33.0,17.3,29.80,West,274,1.0,2.0,52,0.00,,,0.00,Wunderground v.1.15,2013-01-29 11:30:00,
2013-01-29 04:35:00,33.0,17.3,29.80,West,265,1.0,2.0,52,0.00,,,0.00,Wunderground v.1.15,2013-01-29 11:35:00,
2013-01-29 04:40:00,33.0,17.3,29.80,SW,214,1.0,1.0,52,0.00,,,0.00,Wunderground v.1.15,2013-01-29 11:40:00,
2013-01-29 04:45:00,33.0,17.3,29.80,WSW,240,2.0,2.0,52,0.00,,,0.00,Wunderground v.1.15,2013-01-29 11:45:00,
2013-01-29 04:50:00,33.1,17.4,29.80,SW,232,2.0,4.0,52,0.00,,,0.00,Wunderground v.1.15,2013-01-29 11:50:00,
2013-01-29 04:55:00,33.1,17.4,29.79,SW,234,2.0,4.0,52,0.00,,,0.00,Wunderground v.1.15,2013-01-29 11:55:00,
2013-01-29 05:00:00,33.0,17.3,29.79,SSW,200,2.0,2.0,52,0.00,,,0.00,Wunderground v.1.15,2013-01-29 12:00:00,
2013-01-29 05:05:00,32.9,17.2,29.79,SSW,196,2.0,2.0,52,0.00,,,0.00,Wunderground v.1.15,2013-01-29 12:05:00,
2013-01-29 05:10:00,32.7,17.4,29.79,SSW,195,1.0,1.0,53,0.00,,,0.00,Wunderground v.1.15,2013-01-29 12:10:00,
2013-01-29 05:15:00,32.5,17.2,29.79,SW,222,2.0,5.0,53,0.00,,,0.00,Wunderground v.1.15,2013-01-29 12:15:00,
2013-01-29 05:20:00,32.5,17.2,29.80,WSW,254,3.0,4.0,53,0.00,,,0.00,Wunderground v.1.15,2013-01-29 12:20:00,
2013-01-29 05:25:00,32.5,17.2,29.80,SW,230,3.0,4.0,53,0.00,,,0.00,Wunderground v.1.15,2013-01-29 12:25:00,
2013-01-29 05:30:00,32.4,17.2,29.80,SW,217,3.0,3.0,53,0.00,,,0.00,Wunderground v.1.15,2013-01-29 12:30:00,
2013-01-29 05:35:00,32.4,17.2,29.80,SW,224,3.0,5.0,53,0.00,,,0.00,Wunderground v.1.15,2013-01-29 12:35:00,
2013-01-29 05:40:00,32.3,16.6,29.80,SW,229,3.0,3.0,52,0.00,,,0.00,Wunderground v.1.15,2013-01-29 12:40:00,
2013-01-29 05:45:00,32.3,16.6,29.80,WSW,240,3.0,3.0,52,0.00,,,0.00,Wunderground v.1.15,2013-01-29 12:45:00,
2013-01-29 05:50:00,32.0,16.8,29.80,SW,235,3.0,3.0,53,0.00,,,0.00,Wunderground v.1.15,2013-01-29 12:50:00,
2013-01-29 05:55:00,31.8,16.6,29.80,SW,224,2.0,7.0,53,0.00,,,0.00,Wunderground v.1.15,2013-01-29 12:55:00,
2013-01-29 06:00:00,31.6,16.4,29.79,SW,232,2.0,2.0,53,0.00,,,0.00,Wunderground v.1.15,2013-01-29 13:00:00,
2013-01-29 06:10:00,31.1,16.4,29.79,West,273,2.0,2.0,54,0.00,,,0.00,Wunderground v.1.15,2013-01-29 13:10:00,
2013-01-29 06:15:00,31.0,16.3,29.79,WSW,254,2.0,2.0,54,0.00,,,0.00,Wunderground v.1.15,2013-01-29 13:15:00,
2013-01-29 06:20:00,31.0,16.3,29.79,WSW,242,2.0,8.0,54,0.00,,,0.00,Wunderground v.1.15,2013-01-29 13:20:00,
2013-01-29 06:25:00,31.0,16.3,29.79,SW,234,3.0,8.0,54,0.00,,,0.00,Wunderground v.1.15,2013-01-29 13:25:00,
2013-01-29 06:30:00,31.0,16.7,29.79,WNW,292,3.0,3.0,55,0.00,,,0.00,Wunderground v.1.15,2013-01-29 13:30:00,
2013-01-29 06:35:00,31.0,16.7,29.79,SW,232,2.0,3.0,55,0.00,,,0.00,Wunderground v.1.15,2013-01-29 13:35:00,
2013-01-29 06:40:00,30.9,17.0,29.79,SW,233,3.0,3.0,56,0.00,,,0.00,Wunderground v.1.15,2013-01-29 13:40:00,
2013-01-29 06:45:00,30.8,16.9,29.79,SSW,211,3.0,3.0,56,0.00,,,0.00,Wunderground v.1.15,2013-01-29 13:45:00,
2013-01-29 06:50:00,30.7,16.8,29.79,WSW,243,2.0,3.0,56,0.00,,,0.00,Wunderground v.1.15,2013-01-29 13:50:00,
2013-01-29 06:55:00,30.7,17.3,29.80,SW,229,3.0,3.0,57,0.00,,,0.00,Wunderground v.1.15,2013-01-29 13:55:00,
2013-01-29 07:00:00,30.6,17.6,29.80,WSW,247,3.0,3.0,58,0.00,,,0.00,Wunderground v.1.15,2013-01-29 14:00:00,
2013-01-29 07:05:00,30.6,17.6,29.80,West,276,2.0,3.0,58,0.00,,,0.00,Wunderground v.1.15,2013-01-29 14:05:00,
2013-01-29 07:10:00,30.5,17.9,29.80,WSW,238,2.0,2.0,59,0.00,,,0.00,Wunderground v.1.15,2013-01-29 14:10:00,
2013-01-29 07:15:00,30.5,18.3,29.80,West,278,2.0,2.0,60,0.00,,,0.00,Wunderground v.1.15,2013-01-29 14:15:00,
2013-01-29 07:20:00,30.6,18.3,29.80,SW,230,2.0,2.0,60,0.00,,,0.00,Wunderground v.1.15,2013-01-29 14:20:00,
2013-01-29 07:25:00,30.6,18.7,29.80,West,262,2.0,2.0,61,0.00,,,0.00,Wunderground v.1.15,2013-01-29 14:25:00,
2013-01-29 07:30:00,30.7,18.8,29.80,WNW,288,1.0,1.0,61,0.00,,,0.00,Wunderground v.1.15,2013-01-29 14:30:00,
2013-01-29 07:35:00,30.7,18.8,29.81,WNW,288,1.0,1.0,61,0.00,,,0.00,Wunderground v.1.15,2013-01-29 14:35:00,
2013-01-29 07:40:00,30.7,18.8,29.81,WNW,288,1.0,1.0,61,0.00,,,0.00,Wunderground v.1.15,2013-01-29 14:40:00,
2013-01-29 07:45:00,30.7,19.2,29.81,WNW,288,0.0,1.0,62,0.00,,,0.00,Wunderground v.1.15,2013-01-29 14:45:00,
2013-01-29 07:55:00,30.7,19.2,29.81,WSW,245,0.0,2.0,62,0.00,,,0.00,Wunderground v.1.15,2013-01-29 14:55:00,
2013-01-29 08:00:00,30.7,19.6,29.82,SW,228,1.0,3.0,63,0.00,,,0.00,Wunderground v.1.15,2013-01-29 15:00:00,
2013-01-29 08:05:00,30.6,19.5,29.82,SSW,195,2.0,3.0,63,0.00,,,0.00,Wunderground v.1.15,2013-01-29 15:05:00,
2013-01-29 08:10:00,30.6,19.5,29.83,SW,215,1.0,3.0,63,0.00,,,0.00,Wunderground v.1.15,2013-01-29 15:10:00,
2013-01-29 08:15:00,30.6,19.9,29.83,SW,215,1.0,3.0,64,0.00,,,0.00,Wunderground v.1.15,2013-01-29 15:15:00,
2013-01-29 08:20:00,30.7,20.0,29.83,SW,219,1.0,1.0,64,0.00,,,0.00,Wunderground v.1.15,2013-01-29 15:20:00,
2013-01-29 08:25:00,30.7,19.6,29.82,WSW,240,1.0,1.0,63,0.00,,,0.00,Wunderground v.1.15,2013-01-29 15:25:00,
2013-01-29 08:30:00,30.8,19.7,29.83,WSW,242,1.0,1.0,63,0.00,,,0.00,Wunderground v.1.15,2013-01-29 15:30:00,
2013-01-29 08:35:00,30.9,19.8,29.83,WSW,240,1.0,2.0,63,0.00,,,0.00,Wunderground v.1.15,2013-01-29 15:35:00,
2013-01-29 08:40:00,31.0,19.9,29.83,WSW,241,1.0,1.0,63,0.00,,,0.00,Wunderground v.1.15,2013-01-29 15:40:00,
2013-01-29 08:45:00,31.1,19.6,29.83,WSW,256,1.0,1.0,62,0.00,,,0.00,Wunderground v.1.15,2013-01-29 15:45:00,
2013-01-29 08:50:00,31.2,19.7,29.83,WNW,301,1.0,1.0,62,0.00,,,0.00,Wunderground v.1.15,2013-01-29 15:50:00,
2013-01-29 08:55:00,31.5,19.6,29.83,WNW,300,1.0,1.0,61,0.00,,,0.00,Wunderground v.1.15,2013-01-29 15:55:00,
2013-01-29 09:00:00,31.7,19.4,29.83,WNW,300,1.0,1.0,60,0.00,,,0.00,Wunderground v.1.15,2013-01-29 16:00:00,
2013-01-29 09:05:00,32.0,19.3,29.83,West,279,1.0,1.0,59,0.00,,,0.00,Wunderground v.1.15,2013-01-29 16:05:00,
2013-01-29 09:10:00,32.1,19.0,29.83,NW,309,1.0,1.0,58,0.00,,,0.00,Wunderground v.1.15,2013-01-29 16:10:00,
2013-01-29 09:15:00,32.2,18.2,29.84,NW,311,1.0,1.0,56,0.00,,,0.00,Wunderground v.1.15,2013-01-29 16:15:00,
2013-01-29 09:20:00,32.3,18.3,29.83,NW,311,2.0,2.0,56,0.00,,,0.00,Wunderground v.1.15,2013-01-29 16:20:00,
2013-01-29 09:25:00,32.5,17.7,29.84,WNW,291,2.0,3.0,54,0.00,,,0.00,Wunderground v.1.15,2013-01-29 16:25:00,
2013-01-29 09:30:00,32.6,16.9,29.83,NW,305,2.0,2.0,52,0.00,,,0.00,Wunderground v.1.15,2013-01-29 16:30:00,
2013-01-29 09:35:00,32.8,16.2,29.83,NW,319,2.0,4.0,50,0.00,,,0.00,Wunderground v.1.15,2013-01-29 16:35:00,
2013-01-29 09:40:00,33.0,16.4,29.83,WNW,296,3.0,5.0,50,0.00,,,0.00,Wunderground v.1.15,2013-01-29 16:40:00,
2013-01-29 09:45:00,33.1,15.5,29.83,NW,316,3.0,5.0,48,0.00,,,0.00,Wunderground v.1.15,2013-01-29 16:45:00,
2013-01-29 09:50:00,33.1,15.0,29.83,NW,317,4.0,6.0,47,0.00,,,0.00,Wunderground v.1.15,2013-01-29 16:50:00,
2013-01-29 09:55:00,33.0,14.4,29.83,NW,308,4.0,6.0,46,0.00,,,0.00,Wunderground v.1.15,2013-01-29 16:55:00,
2013-01-29 10:00:00,33.0,13.9,29.84,North,9,4.0,9.0,45,0.00,,,0.00,Wunderground v.1.15,2013-01-29 17:00:00,
2013-01-29 10:05:00,33.0,12.4,29.84,NNW,348,4.0,9.0,42,0.00,,,0.00,Wunderground v.1.15,2013-01-29 17:05:00,
2013-01-29 10:10:00,33.2,12.0,29.84,NNW,340,5.0,5.0,41,0.00,,,0.00,Wunderground v.1.15,2013-01-29 17:10:00,
2013-01-29 10:15:00,33.3,12.1,29.84,NW,307,5.0,5.0,41,0.00,,,0.00,Wunderground v.1.15,2013-01-29 17:15:00,
2013-01-29 10:20:00,33.1,11.9,29.84,NNW,327,5.0,5.0,41,0.00,,,0.00,Wunderground v.1.15,2013-01-29 17:20:00,
2013-01-29 10:25:00,33.3,12.6,29.84,NW,325,5.0,6.0,42,0.00,,,0.00,Wunderground v.1.15,2013-01-29 17:25:00,
2013-01-29 10:30:00,34.0,12.2,29.84,NW,321,6.0,6.0,40,0.00,,,0.00,Wunderground v.1.15,2013-01-29 17:30:00,
2013-01-29 10:35:00,34.2,12.4,29.84,NW,323,5.0,6.0,40,0.00,,,0.00,Wunderground v.1.15,2013-01-29 17:35:00,
2013-01-29 10:40:00,33.8,13.1,29.84,WNW,296,5.0,5.0,42,0.00,,,0.00,Wunderground v.1.15,2013-01-29 17:40:00,
2013-01-29 10:45:00,33.4,12.7,29.85,North,355,5.0,7.0,42,0.00,,,0.00,Wunderground v.1.15,2013-01-29 17:45:00,
2013-01-29 10:50:00,33.2,13.1,29.85,WNW,300,6.0,6.0,43,0.00,,,0.00,Wunderground v.1.15,2013-01-29 17:50:00,
2013-01-29 11:00:00,33.3,12.6,29.85,North,355,5.0,5.0,42,0.00,,,0.00,Wunderground v.1.15,2013-01-29 18:00:00,
2013-01-29 11:05:00,33.2,13.6,29.85,North,5,4.0,5.0,44,0.00,,,0.00,Wunderground v.1.15,2013-01-29 18:05:00,
2013-01-29 11:10:00,33.6,16.0,29.85,NE,55,5.0,5.0,48,0.00,,,0.00,Wunderground v.1.15,2013-01-29 18:10:00,
2013-01-29 11:15:00,33.9,16.3,29.85,NNW,348,5.0,7.0,48,0.00,,,0.00,Wunderground v.1.15,2013-01-29 18:15:00,
2013-01-29 11:20:00,32.9,16.3,29.85,NNE,13,6.0,6.0,50,0.00,,,0.00,Wunderground v.1.15,2013-01-29 18:20:00,
2013-01-29 11:25:00,32.3,16.2,29.85,NW,316,6.0,6.0,51,0.00,,,0.00,Wunderground v.1.15,2013-01-29 18:25:00,
2013-01-29 11:30:00,32.2,14.7,29.85,NE,34,6.0,6.0,48,0.00,,,0.00,Wunderground v.1.15,2013-01-29 18:30:00,
2013-01-29 11:35:00,32.4,14.4,29.85,North,355,6.0,6.0,47,0.00,,,0.00,Wunderground v.1.15,2013-01-29 18:35:00,
2013-01-29 11:40:00,33.1,15.0,29.85,NW,313,6.0,9.0,47,0.00,,,0.00,Wunderground v.1.15,2013-01-29 18:40:00,
2013-01-29 11:45:00,33.2,14.1,29.86,North,11,6.0,9.0,45,0.00,,,0.00,Wunderground v.1.15,2013-01-29 18:45:00,
2013-01-29 11:50:00,33.7,14.6,29.85,NNW,341,5.0,5.0,45,0.00,,,0.00,Wunderground v.1.15,2013-01-29 18:50:00,
2013-01-29 12:00:00,33.4,13.3,29.85,NE,34,5.0,5.0,43,0.00,,,0.00,Wunderground v.1.15,2013-01-29 19:00:00,
2013-01-29 12:05:00,33.0,12.9,29.85,NNW,333,5.0,11.0,43,0.00,,,0.00,Wunderground v.1.15,2013-01-29 19:05:00,
2013-01-29 12:15:00,32.1,12.1,29.84,North,5,6.0,10.0,43,0.00,,,0.00,Wunderground v.1.15,2013-01-29 19:15:00,
2013-01-29 12:20:00,32.1,11.6,29.84,North,355,6.0,10.0,42,0.00,,,0.00,Wunderground v.1.15,2013-01-29 19:20:00,
2013-01-29 12:25:00,32.4,11.3,29.84,West,266,5.0,10.0,41,0.00,,,0.00,Wunderground v.1.15,2013-01-29 19:25:00,
2013-01-29 12:30:00,32.7,11.0,29.84,North,360,5.0,7.0,40,0.00,,,0.00,Wunderground v.1.15,2013-01-29 19:30:00,
2013-01-29 12:35:00,33.1,11.4,29.84,North,355,5.0,10.0,40,0.00,,,0.00,Wunderground v.1.15,2013-01-29 19:35:00,
2013-01-29 12:40:00,33.1,10.2,29.84,NNE,16,7.0,7.0,38,0.00,,,0.00,Wunderground v.1.15,2013-01-29 19:40:00,
2013-01-29 12:45:00,32.6,9.8,29.84,NNE,17,8.0,9.0,38,0.00,,,0.00,Wunderground v.1.15,2013-01-29 19:45:00,
2013-01-29 12:55:00,33.1,10.8,29.84,NNW,347,6.0,9.0,39,0.00,,,0.00,Wunderground v.1.15,2013-01-29 19:55:00,
2013-01-29 13:00:00,33.8,9.6,29.84,NNE,29,7.0,10.0,36,0.00,,,0.00,Wunderground v.1.15,2013-01-29 20:00:00,
2013-01-29 13:05:00,34.1,9.3,29.83,NNE,28,8.0,10.0,35,0.00,,,0.00,Wunderground v.1.15,2013-01-29 20:05:00,
2013-01-29 13:10:00,34.7,9.8,29.84,WNW,303,7.0,7.0,35,0.00,,,0.00,Wunderground v.1.15,2013-01-29 20:10:00,
2013-01-29 13:15:00,35.2,9.6,29.84,NNE,14,7.0,9.0,34,0.00,,,0.00,Wunderground v.1.15,2013-01-29 20:15:00,
2013-01-29 13:20:00,35.0,8.7,29.84,WNW,295,7.0,7.0,33,0.00,,,0.00,Wunderground v.1.15,2013-01-29 20:20:00,
2013-01-29 13:25:00,34.4,8.2,29.84,NNE,25,7.0,9.0,33,0.00,,,0.00,Wunderground v.1.15,2013-01-29 20:25:00,
2013-01-29 13:35:00,33.4,8.6,29.85,NW,322,6.0,7.0,35,0.00,,,0.00,Wunderground v.1.15,2013-01-29 20:35:00,
2013-01-29 13:40:00,33.1,7.7,29.85,NW,325,6.0,12.0,34,0.00,,,0.00,Wunderground v.1.15,2013-01-29 20:40:00,
2013-01-29 13:45:00,32.8,6.8,29.85,WNW,290,6.0,12.0,33,0.00,,,0.00,Wunderground v.1.15,2013-01-29 20:45:00,
2013-01-29 13:50:00,33.1,6.4,29.85,WNW,288,7.0,8.0,32,0.00,,,0.00,Wunderground v.1.15,2013-01-29 20:50:00,
2013-01-29 13:55:00,33.2,6.5,29.85,North,355,6.0,8.0,32,0.00,,,0.00,Wunderground v.1.15,2013-01-29 20:55:00,
2013-01-29 14:00:00,33.0,6.3,29.85,NNW,344,6.0,7.0,32,0.00,,,0.00,Wunderground v.1.15,2013-01-29 21:00:00,
2013-01-29 14:05:00,33.0,6.3,29.85,WNW,295,7.0,7.0,32,0.00,,,0.00,Wunderground v.1.15,2013-01-29 21:05:00,
2013-01-29 14:10:00,33.0,5.6,29.86,West,276,7.0,10.0,31,0.00,,,0.00,Wunderground v.1.15,2013-01-29 21:10:00,
2013-01-29 14:15:00,33.0,6.3,29.86,NNW,336,7.0,10.0,32,0.00,,,0.00,Wunderground v.1.15,2013-01-29 21:15:00,
2013-01-29 14:20:00,33.2,7.2,29.86,NNW,327,6.0,6.0,33,0.00,,,0.00,Wunderground v.1.15,2013-01-29 21:20:00,
2013-01-29 14:25:00,33.4,6.7,29.86,WNW,284,7.0,7.0,32,0.00,,,0.00,Wunderground v.1.15,2013-01-29 21:25:00,
2013-01-29 14:30:00,33.5,5.3,29.86,NW,309,8.0,8.0,30,0.00,,,0.00,Wunderground v.1.15,2013-01-29 21:30:00,
2013-01-29 14:35:00,33.8,7.0,29.86,NW,319,7.0,8.0,32,0.00,,,0.00,Wunderground v.1.15,2013-01-29 21:35:00,
2013-01-29 14:40:00,34.4,5.4,29.86,NW,314,6.0,6.0,29,0.00,,,0.00,Wunderground v.1.15,2013-01-29 21:40:00,
2013-01-29 14:45:00,34.4,4.6,29.87,NNW,341,7.0,11.0,28,0.00,,,0.00,Wunderground v.1.15,2013-01-29 21:45:00,
2013-01-29 14:50:00,34.3,4.5,29.87,West,275,7.0,13.0,28,0.00,,,0.00,Wunderground v.1.15,2013-01-29 21:50:00,
2013-01-29 14:55:00,34.1,4.3,29.87,WNW,291,8.0,13.0,28,0.00,,,0.00,Wunderground v.1.15,2013-01-29 21:55:00,
2013-01-29 15:00:00,34.3,4.5,29.87,NNE,26,8.0,9.0,28,0.00,,,0.00,Wunderground v.1.15,2013-01-29 22:00:00,
2013-01-29 15:05:00,34.7,4.1,29.87,SW,224,8.0,9.0,27,0.00,,,0.00,Wunderground v.1.15,2013-01-29 22:05:00,
2013-01-29 15:10:00,34.4,3.0,29.87,NW,322,9.0,12.0,26,0.00,,,0.00,Wunderground v.1.15,2013-01-29 22:10:00,
2013-01-29 15:15:00,34.7,4.9,29.88,North,355,8.0,12.0,28,0.00,,,0.00,Wunderground v.1.15,2013-01-29 22:15:00,
2013-01-29 15:20:00,35.8,5.0,29.88,NW,318,7.0,7.0,27,0.00,,,0.00,Wunderground v.1.15,2013-01-29 22:20:00,
2013-01-29 15:25:00,36.0,4.4,29.89,NW,319,7.0,7.0,26,0.00,,,0.00,Wunderground v.1.15,2013-01-29 22:25:00,
2013-01-29 15:30:00,35.8,5.0,29.89,NE,38,7.0,9.0,27,0.00,,,0.00,Wunderground v.1.15,2013-01-29 22:30:00,
2013-01-29 15:35:00,34.9,5.0,29.89,West,281,6.0,9.0,28,0.00,,,0.00,Wunderground v.1.15,2013-01-29 22:35:00,
2013-01-29 15:40:00,35.3,5.4,29.90,NW,325,6.0,13.0,28,0.00,,,0.00,Wunderground v.1.15,2013-01-29 22:40:00,
2013-01-29 15:45:00,35.8,5.0,29.89,NNW,330,6.0,13.0,27,0.00,,,0.00,Wunderground v.1.15,2013-01-29 22:45:00,
2013-01-29 15:50:00,35.9,3.4,29.90,WNW,295,7.0,9.0,25,0.00,,,0.00,Wunderground v.1.15,2013-01-29 22:50:00,
2013-01-29 15:55:00,35.8,3.3,29.90,NW,311,8.0,10.0,25,0.00,,,0.00,Wunderground v.1.15,2013-01-29 22:55:00,
2013-01-29 16:00:00,35.7,2.4,29.91,NNE,29,8.0,13.0,24,0.00,,,0.00,Wunderground v.1.15,2013-01-29 23:00:00,
2013-01-29 16:10:00,35.2,1.9,29.91,WNW,282,9.0,9.0,24,0.00,,,0.00,Wunderground v.1.15,2013-01-29 23:10:00,
2013-01-29 16:15:00,34.8,3.3,29.91,North,351,9.0,12.0,26,0.00,,,0.00,Wunderground v.1.15,2013-01-29 23:15:00,
2013-01-29 16:20:00,34.4,3.8,29.91,NNE,15,10.0,12.0,27,0.00,,,0.00,Wunderground v.1.15,2013-01-29 23:20:00,
2013-01-29 16:25:00,34.4,4.6,29.92,NW,314,10.0,12.0,28,0.00,,,0.00,Wunderground v.1.15,2013-01-29 23:25:00,
2013-01-29 16:30:00,33.9,4.9,29.92,NW,314,10.0,10.0,29,0.00,,,0.00,Wunderground v.1.15,2013-01-29 23:30:00,
2013-01-29 16:35:00,33.8,4.8,29.93,WNW,295,10.0,10.0,29,0.00,,,0.00,Wunderground v.1.15,2013-01-29 23:35:00,
2013-01-29 16:40:00,33.7,5.5,29.93,NNE,26,9.0,9.0,30,0.00,,,0.00,Wunderground v.1.15,2013-01-29 23:40:00,
2013-01-29 16:45:00,33.7,5.5,29.93,NW,318,8.0,9.0,30,0.00,,,0.00,Wunderground v.1.15,2013-01-29 23:45:00,
2013-01-29 16:50:00,33.6,5.4,29.94,WNW,302,8.0,11.0,30,0.00,,,0.00,Wunderground v.1.15,2013-01-29 23:50:00,
2013-01-29 16:55:00,33.5,5.3,29.94,NW,308,9.0,11.0,30,0.00,,,0.00,Wunderground v.1.15,2013-01-29 23:55:00,
2013-01-29 17:00:00,33.5,5.3,29.94,NNW,344,8.0,10.0,30,0.00,,,0.00,Wunderground v.1.15,2013-01-30 00:00:00,
2013-01-29 17:05:00,33.4,5.2,29.94,NNW,327,8.0,10.0,30,0.00,,,0.00,Wunderground v.1.15,2013-01-30 00:05:00,
2013-01-29 17:15:00,33.2,5.8,29.95,WNW,289,6.0,7.0,31,0.00,,,0.00,Wunderground v.1.15,2013-01-30 00:15:00,
2013-01-29 17:20:00,32.9,6.2,29.95,NW,312,7.0,7.0,32,0.00,,,0.00,Wunderground v.1.15,2013-01-30 00:20:00,
2013-01-29 17:25:00,32.7,6.7,29.96,NW,321,7.0,7.0,33,0.00,,,0.00,Wunderground v.1.15,2013-01-30 00:25:00,
2013-01-29 17:30:00,32.6,7.3,29.96,NNW,331,7.0,8.0,34,0.00,,,0.00,Wunderground v.1.15,2013-01-30 00:30:00,
2013-01-29 17:35:00,32.4,7.1,29.96,NNW,327,6.0,10.0,34,0.00,,,0.00,Wunderground v.1.15,2013-01-30 00:35:00,
2013-01-29 17:40:00,32.3,7.7,29.97,North,350,6.0,6.0,35,0.00,,,0.00,Wunderground v.1.15,2013-01-30 00:40:00,
2013-01-29 17:45:00,32.2,7.6,29.97,NNW,327,6.0,6.0,35,0.00,,,0.00,Wunderground v.1.15,2013-01-30 00:45:00,
2013-01-29 17:50:00,32.1,7.5,29.98,NNW,335,5.0,5.0,35,0.00,,,0.00,Wunderground v.1.15,2013-01-30 00:50:00,
2013-01-29 17:55:00,32.0,8.0,29.98,NW,325,3.0,5.0,36,0.00,,,0.00,Wunderground v.1.15,2013-01-30 00:55:00,
2013-01-29 18:00:00,32.0,7.4,29.98,NW,307,3.0,3.0,35,0.00,,,0.00,Wunderground v.1.15,2013-01-30 01:00:00,
2013-01-29 18:05:00,31.9,7.3,29.99,West,280,3.0,3.0,35,0.00,,,0.00,Wunderground v.1.15,2013-01-30 01:05:00,
2013-01-29 18:10:00,31.7,7.7,29.99,NNW,346,4.0,4.0,36,0.00,,,0.00,Wunderground v.1.15,2013-01-30 01:10:00,
2013-01-29 18:15:00,31.7,7.7,29.99,NW,309,3.0,6.0,36,0.00,,,0.00,Wunderground v.1.15,2013-01-30 01:15:00,
2013-01-29 18:25:00,31.5,7.6,30.00,NNW,331,3.0,5.0,36,0.00,,,0.00,Wunderground v.1.15,2013-01-30 01:25:00,
2013-01-29 18:30:00,31.5,8.2,30.00,NNW,344,4.0,5.0,37,0.00,,,0.00,Wunderground v.1.15,2013-01-30 01:30:00,
2013-01-29 18:35:00,31.4,8.1,30.01,NW,304,4.0,8.0,37,0.00,,,0.00,Wunderground v.1.15,2013-01-30 01:35:00,
2013-01-29 18:40:00,31.3,8.0,30.01,WNW,297,4.0,4.0,37,0.00,,,0.00,Wunderground v.1.15,2013-01-30 01:40:00,
2013-01-29 18:45:00,31.3,8.6,30.02,NNW,328,5.0,5.0,38,0.00,,,0.00,Wunderground v.1.15,2013-01-30 01:45:00,
2013-01-29 18:50:00,31.2,8.5,30.02,North,355,4.0,4.0,38,0.00,,,0.00,Wunderground v.1.15,2013-01-30 01:50:00,
2013-01-29 18:55:00,31.1,8.4,30.03,NW,307,3.0,12.0,38,0.00,,,0.00,Wunderground v.1.15,2013-01-30 01:55:00,
2013-01-29 19:00:00,31.2,8.5,30.03,NW,313,5.0,5.0,38,0.00,,,0.00,Wunderground v.1.15,2013-01-30 02:00:00,
2013-01-29 19:05:00,31.1,9.0,30.03,NNE,26,5.0,6.0,39,0.00,,,0.00,Wunderground v.1.15,2013-01-30 02:05:00,
2013-01-29 19:10:00,31.0,8.9,30.03,West,275,4.0,7.0,39,0.00,,,0.00,Wunderground v.1.15,2013-01-30 02:10:00,
2013-01-29 19:15:00,30.9,8.8,30.04,West,281,5.0,7.0,39,0.00,,,0.00,Wunderground v.1.15,2013-01-30 02:15:00,
2013-01-29 19:25:00,30.8,8.7,30.04,NW,321,7.0,9.0,39,0.00,,,0.00,Wunderground v.1.15,2013-01-30 02:25:00,
2013-01-29 19:30:00,30.8,8.7,30.04,NW,316,6.0,7.0,39,0.00,,,0.00,Wunderground v.1.15,2013-01-30 02:30:00,
2013-01-29 19:35:00,30.6,9.1,30.04,NW,315,5.0,7.0,40,0.00,,,0.00,Wunderground v.1.15,2013-01-30 02:35:00,
2013-01-29 19:40:00,30.6,9.1,30.05,NNW,344,4.0,4.0,40,0.00,,,0.00,Wunderground v.1.15,2013-01-30 02:40:00,
2013-01-29 19:45:00,30.6,9.1,30.05,NW,319,5.0,5.0,40,0.00,,,0.00,Wunderground v.1.15,2013-01-30 02:45:00,
2013-01-29 19:50:00,30.5,9.0,30.05,North,351,4.0,5.0,40,0.00,,,0.00,Wunderground v.1.15,2013-01-30 02:50:00,
2013-01-29 19:55:00,30.4,9.5,30.05,North,10,3.0,5.0,41,0.00,,,0.00,Wunderground v.1.15,2013-01-30 02:55:00,
2013-01-29 20:05:00,30.3,9.4,30.05,ENE,65,3.0,4.0,41,0.00,,,0.00,Wunderground v.1.15,2013-01-30 03:05:00,
2013-01-29 20:10:00,30.2,9.3,30.06,NNE,16,2.0,2.0,41,0.00,,,0.00,Wunderground v.1.15,2013-01-30 03:10:00,
2013-01-29 20:20:00,30.1,9.7,30.07,NW,323,1.0,2.0,42,0.00,,,0.00,Wunderground v.1.15,2013-01-30 03:20:00,
2013-01-29 20:30:00,30.2,10.4,30.07,NE,38,3.0,3.0,43,0.00,,,0.00,Wunderground v.1.15,2013-01-30 03:30:00,
2013-01-29 20:35:00,30.2,10.4,30.08,NNE,29,2.0,3.0,43,0.00,,,0.00,Wunderground v.1.15,2013-01-30 03:35:00,
2013-01-29 20:40:00,30.2,10.4,30.08,NE,54,3.0,4.0,43,0.00,,,0.00,Wunderground v.1.15,2013-01-30 03:40:00,
2013-01-29 20:45:00,30.2,10.4,30.08,NNE,23,3.0,4.0,43,0.00,,,0.00,Wunderground v.1.15,2013-01-30 03:45:00,
2013-01-29 20:50:00,30.1,10.8,30.08,North,355,3.0,3.0,44,0.00,,,0.00,Wunderground v.1.15,2013-01-30 03:50:00,
2013-01-29 20:55:00,30.1,10.8,30.09,NNE,30,4.0,4.0,44,0.00,,,0.00,Wunderground v.1.15,2013-01-30 03:55:00,
2013-01-29 21:00:00,30.1,10.8,30.09,North,349,3.0,3.0,44,0.00,,,0.00,Wunderground v.1.15,2013-01-30 04:00:00,
2013-01-29 21:10:00,30.0,10.7,30.10,NNE,15,3.0,3.0,44,0.00,,,0.00,Wunderground v.1.15,2013-01-30 04:10:00,
2013-01-29 21:15:00,29.8,11.0,30.10,NNW,338,2.0,4.0,45,0.00,,,0.00,Wunderground v.1.15,2013-01-30 04:15:00,
2013-01-29 21:20:00,29.7,10.9,30.10,NNE,28,2.0,4.0,45,0.00,,,0.00,Wunderground v.1.15,2013-01-30 04:20:00,
2013-01-29 21:25:00,29.5,10.7,30.10,NNE,19,1.0,5.0,45,0.00,,,0.00,Wunderground v.1.15,2013-01-30 04:25:00,
2013-01-29 21:30:00,29.4,11.1,30.10,ENE,67,2.0,2.0,46,0.00,,,0.00,Wunderground v.1.15,2013-01-30 04:30:00,
2013-01-29 21:35:00,29.3,11.1,30.11,NNE,32,3.0,3.0,46,0.00,,,0.00,Wunderground v.1.15,2013-01-30 04:35:00,
2013-01-29 21:40:00,29.2,11.0,30.12,NNW,333,3.0,3.0,46,0.00,,,0.00,Wunderground v.1.15,2013-01-30 04:40:00,
2013-01-29 21:45:00,29.1,10.9,30.12,East,82,2.0,3.0,46,0.00,,,0.00,Wunderground v.1.15,2013-01-30 04:45:00,
2013-01-29 21:50:00,29.0,11.3,30.12,NNE,13,2.0,2.0,47,0.00,,,0.00,Wunderground v.1.15,2013-01-30 04:50:00,
2013-01-29 21:55:00,28.8,11.1,30.13,North,355,1.0,2.0,47,0.00,,,0.00,Wunderground v.1.15,2013-01-30 04:55:00,
2013-01-29 22:00:00,28.7,11.0,30.12,NW,322,1.0,1.0,47,0.00,,,0.00,Wunderground v.1.15,2013-01-30 05:00:00,
2013-01-29 22:10:00,28.7,11.0,30.13,North,5,2.0,2.0,47,0.00,,,0.00,Wunderground v.1.15,2013-01-30 05:10:00,
2013-01-29 22:15:00,28.5,11.3,30.13,NNE,17,2.0,2.0,48,0.00,,,0.00,Wunderground v.1.15,2013-01-30 05:15:00,
2013-01-29 22:20:00,28.4,11.2,30.13,NNW,342,2.0,2.0,48,0.00,,,0.00,Wunderground v.1.15,2013-01-30 05:20:00,
2013-01-29 22:25:00,28.4,11.2,30.14,NNE,24,2.0,2.0,48,0.00,,,0.00,Wunderground v.1.15,2013-01-30 05:25:00,
2013-01-29 22:30:00,28.5,11.3,30.14,NW,325,2.0,2.0,48,0.00,,,0.00,Wunderground v.1.15,2013-01-30 05:30:00,
2013-01-29 22:35:00,28.4,11.6,30.14,NNE,27,2.0,2.0,49,0.00,,,0.00,Wunderground v.1.15,2013-01-30 05:35:00,
2013-01-29 22:40:00,28.5,11.7,30.15,NW,325,2.0,2.0,49,0.00,,,0.00,Wunderground v.1.15,2013-01-30 05:40:00,
2013-01-29 22:45:00,28.3,11.6,30.15,NNW,338,2.0,2.0,49,0.00,,,0.00,Wunderground v.1.15,2013-01-30 05:45:00,
2013-01-29 22:50:00,28.1,11.4,30.15,NNW,335,1.0,1.0,49,0.00,,,0.00,Wunderground v.1.15,2013-01-30 05:50:00,
2013-01-29 22:55:00,27.9,11.6,30.15,NNW,335,1.0,1.0,50,0.00,,,0.00,Wunderground v.1.15,2013-01-30 05:55:00,
2013-01-29 23:00:00,27.7,11.5,30.16,NNW,333,0.0,2.0,50,0.00,,,0.00,Wunderground v.1.15,2013-01-30 06:00:00,
2013-01-29 23:05:00,27.6,11.8,30.16,North,5,1.0,3.0,51,0.00,,,0.00,Wunderground v.1.15,2013-01-30 06:05:00,
2013-01-29 23:10:00,27.7,11.9,30.16,North,5,1.0,1.0,51,0.00,,,0.00,Wunderground v.1.15,2013-01-30 06:10:00,
2013-01-29 23:15:00,27.5,11.7,30.16,North,355,0.0,1.0,51,0.00,,,0.00,Wunderground v.1.15,2013-01-30 06:15:00,
2013-01-29 23:20:00,27.4,12.1,30.17,North,355,1.0,2.0,52,0.00,,,0.00,Wunderground v.1.15,2013-01-30 06:20:00,
2013-01-29 23:25:00,27.5,12.2,30.17,North,5,1.0,2.0,52,0.00,,,0.00,Wunderground v.1.15,2013-01-30 06:25:00,
2013-01-29 23:30:00,27.4,12.1,30.17,NNE,19,1.0,4.0,52,0.00,,,0.00,Wunderground v.1.15,2013-01-30 06:30:00,
2013-01-29 23:35:00,27.2,12.3,30.17,WNW,301,1.0,4.0,53,0.00,,,0.00,Wunderground v.1.15,2013-01-30 06:35:00,
2013-01-29 23:40:00,27.1,12.6,30.18,NW,309,1.0,1.0,54,0.00,,,0.00,Wunderground v.1.15,2013-01-30 06:40:00,
2013-01-29 23:45:00,27.2,13.1,30.18,NW,323,2.0,3.0,55,0.00,,,0.00,Wunderground v.1.15,2013-01-30 06:45:00,
2013-01-29 23:50:00,27.2,13.1,30.18,NNW,338,2.0,3.0,55,0.00,,,0.00,Wunderground v.1.15,2013-01-30 06:50:00,
2013-01-29 23:55:00,27.3,13.2,30.18,NW,313,2.0,3.0,55,0.00,,,0.00,Wunderground v.1.15,2013-01-30 06:55:00,